| time (UTC) | temp F | wind direction | speed MPH | gust MPH | rain 1hr in | rain 24hr in | rain mn in | humidity % | barometer mb |
| 20260831201535 | 86 | 213 | 0.0 | 4.0 | 0.00 | 0.00 | 0.00 | 61 | 1019.2 |
| 20260831200032 | 86 | 229 | 3.0 | 8.0 | 0.00 | 0.00 | 0.00 | 59 | 1019.4 |
| 20260831194529 | 87 | 270 | 2.0 | 8.0 | 0.00 | 0.00 | 0.00 | 62 | 1019.6 |
| 20260831193043 | 87 | 267 | 1.0 | 7.0 | 0.00 | 0.00 | 0.00 | 61 | 1019.7 |
| 20260831191542 | 87 | 223 | 3.0 | 8.0 | 0.00 | 0.00 | 0.00 | 59 | 1019.7 |
| 20260831190029 | 87 | 261 | 2.0 | 7.0 | 0.00 | 0.00 | 0.00 | 62 | 1019.9 |
| 20260831184524 | 87 | 264 | 0.0 | 2.0 | 0.00 | 0.00 | 0.00 | 62 | 1020.1 |
| 20260831183036 | 88 | 16 | 0.0 | 8.0 | 0.00 | 0.00 | 0.00 | 59 | 1020.2 |
| 20260831181530 | 87 | 234 | 5.0 | 9.0 | 0.00 | 0.00 | 0.00 | 60 | 1020.4 |
| 20260831180036 | 87 | 308 | 0.0 | 2.0 | 0.00 | 0.00 | 0.00 | 61 | 1020.6 |
| 20260831174531 | 87 | 42 | 0.0 | 5.0 | 0.00 | 0.00 | 0.00 | 61 | 1020.7 |
| 20260831173038 | 87 | 344 | 0.0 | 5.0 | 0.00 | 0.00 | 0.00 | 62 | 1020.8 |
| 20260831171524 | 87 | 225 | 1.0 | 6.0 | 0.00 | 0.00 | 0.00 | 59 | 1020.7 |
| 20260831170029 | 87 | 261 | 1.0 | 10.0 | 0.00 | 0.00 | 0.00 | 58 | 1020.8 |
| 20260831164532 | 87 | 245 | 3.0 | 8.0 | 0.00 | 0.00 | 0.00 | 58 | 1020.9 |
| 20260831163035 | 87 | 253 | 2.0 | 5.0 | 0.00 | 0.00 | 0.00 | 62 | 1021.0 |
| 20260831161534 | 85 | 28 | 0.0 | 7.0 | 0.00 | 0.00 | 0.00 | 65 | 1020.9 |
| 20260831160039 | 84 | 240 | 4.0 | 7.0 | 0.00 | 0.00 | 0.00 | 67 | 1021.0 |
| 20260831154616 | 83 | 267 | 0.0 | 3.0 | 0.00 | 0.00 | 0.00 | 75 | 1020.9 |
| 20260831153028 | 82 | 226 | 0.0 | 2.0 | 0.00 | 0.00 | 0.00 | 76 | 1020.8 |
| 20260831151532 | 82 | 226 | 0.0 | 2.0 | 0.00 | 0.00 | 0.00 | 75 | 1020.8 |
| 20260831150033 | 81 | 237 | 0.0 | 4.0 | 0.00 | 0.00 | 0.00 | 75 | 1020.8 |
| 20260831144535 | 80 | 266 | 1.0 | 4.0 | 0.00 | 0.00 | 0.00 | 78 | 1020.6 |
| 20260831143034 | 78 | 178 | 1.0 | 6.0 | 0.00 | 0.00 | 0.00 | 80 | 1020.5 |
| 20260831141530 | 77 | 108 | 0.0 | 1.0 | 0.00 | 0.00 | 0.00 | 84 | 1020.3 |
| 20260831140029 | 76 | 157 | 1.0 | 5.0 | 0.00 | 0.00 | 0.00 | 85 | 1020.5 |
| 20260831134531 | 75 | 192 | 0.0 | 4.0 | 0.00 | 0.00 | 0.00 | 87 | 1020.7 |
| 20260831133027 | 74 | 159 | 0.0 | 4.0 | 0.00 | 0.00 | 0.00 | 87 | 1020.6 |
| 20260831131540 | 74 | 253 | 0.0 | 3.0 | 0.00 | 0.00 | 0.00 | 88 | 1020.7 |
| 20260831130039 | 73 | 202 | 0.0 | 2.0 | 0.00 | 0.00 | 0.00 | 89 | 1020.8 |
| 20260831124526 | 73 | 202 | 0.0 | 0.0 | 0.00 | 0.00 | 0.00 | 91 | 1020.8 |
| 20260831123017 | 72 | 140 | 0.0 | 0.0 | 0.00 | 0.00 | 0.00 | 91 | 1020.7 |
| 20260831121509 | 72 | 144 | 0.0 | 0.0 | 0.00 | 0.00 | 0.00 | 91 | 1020.6 |
| 20260831120038 | 72 | 138 | 0.0 | 0.0 | 0.00 | 0.00 | 0.00 | 91 | 1020.5 |
| 20260831114533 | 72 | 177 | 0.0 | 0.0 | 0.00 | 0.00 | 0.00 | 91 | 1020.4 |
| 20260831113027 | 72 | 193 | 0.0 | 0.0 | 0.00 | 0.00 | 0.00 | 91 | 1020.3 |
| 20260831111521 | 72 | 188 | 0.0 | 0.0 | 0.00 | 0.00 | 0.00 | 91 | 1020.2 |
| 20260831110022 | 72 | 175 | 0.0 | 0.0 | 0.00 | 0.00 | 0.00 | 91 | 1020.1 |
| 20260831104516 | 72 | 175 | 0.0 | 0.0 | 0.00 | 0.00 | 0.00 | 91 | 1020.0 |
| 20260831103014 | 72 | 175 | 0.0 | 0.0 | 0.00 | 0.00 | 0.00 | 90 | 1019.9 |
| 20260831101534 | 72 | 175 | 0.0 | 0.0 | 0.00 | 0.00 | 0.00 | 90 | 1019.9 |
| 20260831100048 | 72 | 174 | 0.0 | 0.0 | 0.00 | 0.00 | 0.00 | 90 | 1019.9 |
| 20260831094530 | 72 | 192 | 0.0 | 0.0 | 0.00 | 0.00 | 0.00 | 90 | 1020.0 |
| 20260831093039 | 72 | 180 | 0.0 | 0.0 | 0.00 | 0.00 | 0.00 | 90 | 1019.8 |
| 20260831091519 | 72 | 186 | 0.0 | 0.0 | 0.00 | 0.00 | 0.00 | 89 | 1019.8 |
| 20260831090016 | 72 | 186 | 0.0 | 0.0 | 0.00 | 0.00 | 0.00 | 89 | 1019.9 |
| 20260831084531 | 72 | 186 | 0.0 | 0.0 | 0.00 | 0.00 | 0.00 | 88 | 1019.9 |
| 20260831083034 | 72 | 186 | 0.0 | 0.0 | 0.00 | 0.00 | 0.00 | 88 | 1019.8 |
| 20260831081536 | 72 | 119 | 0.0 | 0.0 | 0.00 | 0.00 | 0.00 | 88 | 1019.6 |
| 20260831080029 | 72 | 160 | 0.0 | 0.0 | 0.00 | 0.00 | 0.00 | 88 | 1019.6 |
| 20260831074528 | 72 | 188 | 0.0 | 2.0 | 0.00 | 0.00 | 0.00 | 88 | 1019.6 |
| 20260831073023 | 72 | 159 | 0.0 | 2.0 | 0.00 | 0.00 | 0.00 | 88 | 1019.6 |
| 20260831071547 | 72 | 117 | 0.0 | 0.0 | 0.00 | 0.00 | 0.00 | 89 | 1019.8 |
| 20260831070035 | 72 | 150 | 0.0 | 0.0 | 0.00 | 0.00 | 0.00 | 89 | 1019.9 |
| 20260831064533 | 72 | 112 | 0.0 | 0.0 | 0.00 | 0.00 | 0.00 | 89 | 1020.0 |
| 20260831063032 | 72 | 112 | 0.0 | 0.0 | 0.00 | 0.00 | 0.00 | 88 | 1020.0 |
| 20260831061531 | 72 | 112 | 0.0 | 0.0 | 0.00 | 0.00 | 0.00 | 88 | 1020.0 |
| 20260831060029 | 72 | 112 | 0.0 | 0.0 | 0.00 | 0.00 | 0.00 | 87 | 1020.1 |
| 20260831054524 | 73 | 143 | 0.0 | 0.0 | 0.00 | 0.00 | 0.00 | 87 | 1020.3 |
| 20260831053039 | 73 | 143 | 0.0 | 0.0 | 0.00 | 0.00 | 0.00 | 87 | 1020.3 |
| 20260831051537 | 73 | 117 | 0.0 | 0.0 | 0.00 | 0.00 | 0.00 | 87 | 1020.3 |
| 20260831050010 | 73 | 150 | 0.0 | 0.0 | 0.00 | 0.00 | 0.00 | 87 | 1020.4 |
| 20260831044514 | 73 | 150 | 0.0 | 0.0 | 0.00 | 0.00 | 0.00 | 86 | 1020.4 |
| 20260831043014 | 73 | 157 | 0.0 | 0.0 | 0.00 | 0.00 | 0.00 | 86 | 1020.4 |
| 20260831041513 | 73 | 134 | 0.0 | 0.0 | 0.00 | 0.00 | 0.00 | 87 | 1020.4 |
| 20260831040014 | 73 | 111 | 0.0 | 0.0 | 0.00 | 0.00 | 0.00 | 86 | 1020.4 |
| 20260831034515 | 73 | 93 | 0.0 | 2.0 | 0.00 | 0.00 | 0.00 | 86 | 1020.4 |
| 20260831033027 | 73 | 159 | 0.0 | 0.0 | 0.00 | 0.00 | 0.00 | 86 | 1020.6 |
| 20260831031512 | 73 | 159 | 0.0 | 0.0 | 0.00 | 0.00 | 0.00 | 85 | 1020.6 |
| 20260831030014 | 73 | 159 | 0.0 | 0.0 | 0.00 | 0.00 | 0.00 | 84 | 1020.5 |
| 20260831024518 | 73 | 159 | 0.0 | 0.0 | 0.00 | 0.00 | 0.00 | 85 | 1020.6 |
| 20260831023030 | 73 | 155 | 0.0 | 0.0 | 0.00 | 0.00 | 0.00 | 86 | 1020.8 |
| 20260831021532 | 73 | 155 | 0.0 | 0.0 | 0.00 | 0.00 | 0.00 | 85 | 1020.9 |
| 20260831020030 | 74 | 155 | 0.0 | 0.0 | 0.00 | 0.00 | 0.00 | 84 | 1020.9 |
| 20260831014518 | 74 | 155 | 0.0 | 0.0 | 0.00 | 0.00 | 0.00 | 84 | 1020.8 |
| 20260831013013 | 75 | 155 | 0.0 | 0.0 | 0.00 | 0.00 | 0.00 | 83 | 1020.9 |
| 20260831011521 | 75 | 155 | 0.0 | 0.0 | 0.00 | 0.00 | 0.00 | 81 | 1020.7 |
| 20260831010021 | 76 | 155 | 0.0 | 0.0 | 0.00 | 0.00 | 0.00 | 81 | 1020.6 |
| 20260831004521 | 77 | 155 | 0.0 | 0.0 | 0.00 | 0.00 | 0.00 | 79 | 1020.4 |
| 20260831003021 | 77 | 155 | 0.0 | 0.0 | 0.00 | 0.00 | 0.00 | 77 | 1020.3 |
| 20260831001526 | 78 | 155 | 0.0 | 0.0 | 0.00 | 0.00 | 0.00 | 75 | 1020.1 |
| 20260831000021 | 79 | 169 | 0.0 | 0.0 | 0.00 | 0.00 | 0.00 | 75 | 1020.0 |
| 20260830234524 | 79 | 165 | 0.0 | 1.0 | 0.00 | 0.00 | 0.00 | 74 | 1019.7 |
| 20260830233017 | 80 | 163 | 0.0 | 2.0 | 0.00 | 0.00 | 0.00 | 73 | 1019.6 |
| 20260830231524 | 80 | 190 | 0.0 | 2.0 | 0.00 | 0.00 | 0.00 | 72 | 1019.5 |
| 20260830230017 | 80 | 187 | 0.0 | 2.0 | 0.00 | 0.00 | 0.00 | 71 | 1019.4 |
| 20260830224520 | 80 | 119 | 0.0 | 0.0 | 0.00 | 0.00 | 0.00 | 73 | 1019.3 |
| 20260830223019 | 80 | 17 | 0.0 | 0.0 | 0.00 | 0.00 | 0.00 | 73 | 1019.1 |
| 20260830221515 | 81 | 167 | 0.0 | 0.0 | 0.00 | 0.00 | 0.00 | 71 | 1019.2 |
| 20260830220014 | 81 | 167 | 0.0 | 0.0 | 0.00 | 0.00 | 0.00 | 71 | 1019.0 |
| 20260830214519 | 82 | 162 | 0.0 | 0.0 | 0.00 | 0.00 | 0.00 | 72 | 1018.8 |
| 20260830213034 | 82 | 135 | 0.0 | 0.0 | 0.00 | 0.00 | 0.00 | 70 | 1018.8 |
| 20260830211531 | 82 | 171 | 0.0 | 3.0 | 0.00 | 0.00 | 0.00 | 67 | 1018.6 |
| 20260830210046 | 82 | 267 | 0.0 | 3.0 | 0.00 | 0.00 | 0.00 | 71 | 1018.6 |
| 20260830204521 | 82 | 173 | 0.0 | 3.0 | 0.00 | 0.00 | 0.00 | 70 | 1018.9 |
| 20260830203030 | 81 | 101 | 0.0 | 3.0 | 0.00 | 0.00 | 0.00 | 69 | 1018.9 |